[[{"header":{"parameterUnit":"m.s-1","parameterCategory":1,"la1":30.2991,"la2":30.254,"lo1":-89.0895,"lo2":-89.0444,"dy":0.0017,"dx":0.0017,"nx":28,"ny":28,"refTime":"2024-08-01T03:00:00:Z","depth":0,"parameterNumber":2,"parameterNumberName":"U-component_of_WINDS"},"data":[0,0,0,0,0,0,0,0,0,0,0,0,0,0,0,0,0,0,0,0,0,0,0,0,0,0,0,0,0,0,0,0,0,0,0,0,0,0,0,0,0,0,0,0,0,0,0,0,0,0,0,0,0,0,0,0,0,0,1.4758,1.4759,0,1.4775,1.4775,1.4775,1.4744,1.4743,1.4742,1.4741,1.4758,1.4759,1.4761,0,0,0,0,0,0,0,0,0,0,0,0,0,1.4699,1.4701,1.4758,1.4759,1.4759,1.4774,1.4775,1.4775,1.4744,1.4743,1.4741,1.474,1.4758,1.4759,1.4761,0,0,0,0,0,0,0,0,0,0,0,0,0,1.4721,1.4701,1.4758,1.4745,1.4744,1.4774,1.4775,1.4775,1.4744,1.4743,1.4741,1.474,1.4757,1.4759,1.4761,1.4805,0,0,1.4768,1.4769,0,0,0,0,0,0,0,0,1.472,1.4724,1.4747,1.4746,1.4745,1.4755,1.476,1.4785,1.4745,1.4744,1.4741,1.4739,1.4758,1.476,1.4767,1.4806,1.4807,1.4768,1.4769,1.477,1.4771,0,0,0,0,0,0,0,1.4719,1.4723,1.4765,1.4747,1.4746,1.4738,1.4739,1.4765,1.476,1.4744,1.4742,1.4744,1.4758,1.4765,1.4767,1.4807,1.4768,1.477,1.4771,1.4772,1.488,1.4881,0,0,0,0,0,0,1.4719,1.4722,1.4764,1.4765,1.4728,1.474,1.4742,1.4754,1.4759,1.4759,1.4745,1.4743,1.4762,1.4765,1.4768,1.4817,1.477,1.4772,1.4773,1.4878,1.488,1.4882,0,0,0,0,0,0,1.4718,1.4723,1.4764,1.4743,1.4747,1.4743,1.4757,1.4755,1.4762,1.476,1.4759,1.4754,1.4761,1.4764,1.4795,1.4817,1.4773,1.4775,1.4876,1.4879,1.4881,1.4918,0,0,0,0,0,0,1.4716,1.4723,1.474,1.4743,1.4749,1.4792,1.4758,1.4756,1.4766,1.4762,1.4768,1.4767,1.476,1.4792,1.4797,1.4819,1.4777,1.4874,1.4877,1.488,1.4915,1.4921,1.4927,0,0,0,0,0,1.4714,1.4751,1.4741,1.4746,1.477,1.4793,1.4796,1.4786,1.4768,1.4784,1.4783,1.4767,1.4814,1.4796,1.4801,1.4824,1.4873,1.4876,1.488,1.4912,1.492,1.4927,0,0,0,0,0,0,1.4751,1.4751,1.474,1.4779,1.4786,1.4788,1.4809,1.4796,1.4808,1.4805,1.4792,1.4794,1.4826,1.4829,1.4808,1.4865,1.484,1.4845,1.4863,1.487,1.4876,1.4874,1.4778,0,0,0,0,0,1.4764,1.4782,1.4781,1.4816,1.4819,1.4813,1.4823,1.4815,1.4822,1.4825,1.4826,1.4833,1.4849,1.486,1.4875,1.4915,1.4914,1.4933,1.4939,1.4944,1.4948,1.4967,1.4974,1.4893,1.4893,1.4893,0,0,1.479,1.4792,1.4805,1.4823,1.4827,1.4846,1.4816,1.4838,1.4852,1.4828,1.4856,1.4857,1.4865,1.4899,1.4915,1.4902,1.497,1.4949,1.4953,1.4954,1.4971,1.4979,1.4985,1.4896,1.4895,1.4895,0,0,1.4847,1.4851,1.4879,1.4883,1.489,1.4885,1.4892,1.4895,1.4894,1.4922,1.4904,1.492,1.4948,1.4953,1.496,1.5015,1.5001,1.5021,1.5052,1.507,1.5076,1.5082,1.5099,1.5106,1.5025,1.5025,1.5025,0,1.4879,1.4906,1.4895,1.4917,1.4924,1.4903,1.4929,1.4935,1.4946,1.4951,1.4937,1.497,1.4974,1.5008,1.5021,1.5028,1.5034,1.5019,1.5076,1.5082,1.5087,1.5103,1.511,1.5027,1.5027,1.5027,1.5026,0,1.4943,1.4963,1.4984,1.4994,1.5004,1.5029,1.502,1.5031,1.5021,1.5018,1.5045,1.5049,1.5062,1.507,1.5062,1.5102,1.5094,1.5078,1.5053,1.5097,1.5112,1.5118,1.503,1.503,1.5029,1.5028,0,0,1.5025,1.5026,1.5034,1.5037,1.5041,1.5056,1.5078,1.5091,1.51,1.5108,1.5125,1.5149,1.5133,1.5141,1.5132,1.5149,1.5189,1.513,1.513,1.5139,1.5231,1.5241,1.5249,1.518,1.5181,1.5182,1.5229,0,1.5079,1.5117,1.5106,1.5144,1.516,1.5139,1.5158,1.5163,1.516,1.5173,1.517,1.5185,1.5165,1.5169,1.5184,1.5181,1.5207,1.5178,1.5194,1.5195,1.5191,1.5257,1.5269,1.5313,1.5235,1.5236,1.5237,0,1.5148,1.5156,1.5196,1.5194,1.5201,1.5219,1.5227,1.5241,1.5244,1.5241,1.5248,1.5235,1.5256,1.5231,1.5259,1.5239,1.5245,1.5245,1.5246,1.5246,1.5218,1.5257,1.5328,1.5333,1.5247,1.5246,1.5245,0,1.52,1.5222,1.5247,1.525,1.5251,1.5263,1.5264,1.5266,1.5273,1.5281,1.5285,1.5297,1.5302,1.531,1.5301,1.5284,1.5329,1.5304,1.5325,1.5325,1.5335,1.5334,1.5405,1.5342,1.5342,1.5342,1.5342,0,1.526,1.5284,1.527,1.5285,1.5311,1.5298,1.5324,1.5322,1.5324,1.5338,1.5321,1.5334,1.5322,1.5334,1.5327,1.5349,1.5353,1.5349,1.5347,1.535,1.535,1.5352,1.5348,1.5344,1.5343,1.5343,1.5343,0,1.5322,1.5314,1.5339,1.5337,1.5336,1.5355,1.5353,1.5366,1.5361,1.5379,1.5383,1.5375,1.5388,1.5379,1.5393,1.5388,1.5417,1.5411,1.5415,1.5413,1.5434,1.5431,1.5508,1.5516,1.545,1.545,1.5451,0,1.536,1.5378,1.5376,1.5384,1.5385,1.5398,1.5405,1.5392,1.54,1.5404,1.5417,1.5428,1.5436,1.5458,1.5454,1.5463,1.5456,1.5483,1.5458,1.5459,1.5454,1.5452,1.5453,1.5487,1.5488,1.5489,1.5489,0,1.5428,1.5422,1.5432,1.544,1.5448,1.5454,1.5459,1.5466,1.5453,1.5462,1.5475,1.5481,1.5494,1.5504,1.5512,1.5512,1.5498,1.5497,1.5502,1.5505,1.5505,1.5503,1.5426,1.5495,1.5495,1.5494,1.5494,1.5494,1.5478,1.5491,1.5491,1.5502,1.5504,1.5508,1.5519,1.5515,1.5525,1.5534,1.5526,1.554,1.5541,1.555,1.5552,1.5562,1.5551,1.5559,1.5561,1.5563,1.5564,1.5505,1.5564,1.5564,1.5563,1.5563,1.5563,0,1.5543,1.5541,1.5551,1.5557,1.5565,1.555,1.5554,1.5561,1.5574,1.5576,1.5584,1.5597,1.5607,1.5602,1.5611,1.562,1.5613,1.5622,1.5621,1.562,1.5575,1.5568,1.5627,1.5627,1.5627,1.5627,1.5627,1.5627,1.5577,1.5598,1.5592,1.5613,1.5611,1.5624,1.5627,1.563,1.5631,1.5646,1.5654,1.5651,1.5649,1.5657,1.5665,1.5663,1.5666,1.5677,1.5673,1.563,1.5624,1.5618,1.5612,1.5678,1.5679,1.5717,1.5718,1.5718]},{"header":{"parameterUnit":"m.s-1","parameterCategory":1,"la1":30.2991,"la2":30.254,"lo1":-89.0895,"lo2":-89.0444,"dy":0.0017,"dx":0.0017,"nx":28,"ny":28,"refTime":"2024-08-01T03:00:00:Z","depth":0,"parameterNumber":3,"parameterNumberName":"V-component_of_WINDS"},"data":[0,0,0,0,0,0,0,0,0,0,0,0,0,0,0,0,0,0,0,0,0,0,0,0,0,0,0,0,0,0,0,0,0,0,0,0,0,0,0,0,0,0,0,0,0,0,0,0,0,0,0,0,0,0,0,0,0,0,3.4631,3.4631,0,3.47,3.4701,3.4702,3.467,3.4668,3.4667,3.4665,3.4733,3.4736,3.4739,0,0,0,0,0,0,0,0,0,0,0,0,0,3.4465,3.4469,3.4631,3.4631,3.4632,3.47,3.4701,3.4702,3.467,3.4668,3.4666,3.4664,3.4731,3.4735,3.4739,0,0,0,0,0,0,0,0,0,0,0,0,0,3.4536,3.447,3.463,3.4625,3.4625,3.47,3.4701,3.4702,3.4671,3.4668,3.4666,3.4663,3.473,3.4735,3.474,3.4823,0,0,3.4756,3.4758,0,0,0,0,0,0,0,0,3.4532,3.4542,3.4625,3.4625,3.4626,3.4674,3.4667,3.4743,3.4672,3.4653,3.4665,3.4662,3.4715,3.4721,3.474,3.4826,3.4829,3.4756,3.4759,3.4761,3.4763,0,0,0,0,0,0,0,3.4527,3.4539,3.4658,3.4626,3.4627,3.4617,3.4624,3.4682,3.4698,3.4655,3.4653,3.4661,3.4715,3.4735,3.4741,3.483,3.4756,3.476,3.4764,3.4766,3.4986,3.4989,0,0,0,0,0,0,3.4523,3.4535,3.4656,3.466,3.4572,3.4622,3.463,3.4661,3.4697,3.47,3.4664,3.466,3.4727,3.4735,3.4743,3.4841,3.4761,3.4766,3.4769,3.4983,3.4987,3.499,0,0,0,0,0,0,3.452,3.4534,3.4653,3.4597,3.4612,3.4628,3.4663,3.4664,3.4684,3.4704,3.4706,3.4682,3.4726,3.4736,3.4803,3.4843,3.4768,3.4773,3.498,3.4984,3.4988,3.5039,0,0,0,0,0,0,3.4515,3.4533,3.4566,3.4598,3.4615,3.4714,3.4665,3.4667,3.4693,3.4689,3.4721,3.4724,3.4724,3.4796,3.4808,3.4849,3.4777,3.4976,3.4982,3.4987,3.5034,3.5045,3.5054,0,0,0,0,0,3.4509,3.4578,3.4568,3.4583,3.4657,3.4716,3.4725,3.4725,3.4697,3.4729,3.4741,3.4723,3.4837,3.4803,3.4817,3.486,3.4974,3.498,3.4986,3.503,3.5043,3.5054,0,0,0,0,0,0,3.4549,3.4582,3.4572,3.4653,3.4682,3.4711,3.4752,3.4739,3.4776,3.4771,3.4768,3.4775,3.4845,3.4859,3.482,3.4941,3.4901,3.491,3.4929,3.4941,3.4951,3.4946,3.4781,0,0,0,0,0,3.4568,3.4615,3.464,3.4709,3.4724,3.4735,3.4761,3.4759,3.4788,3.48,3.4818,3.4846,3.4888,3.4915,3.4955,3.5036,3.5041,3.5072,3.5082,3.509,3.5098,3.5139,3.5153,3.501,3.501,3.501,0,0,3.4606,3.4629,3.4659,3.4717,3.474,3.4786,3.4746,3.4798,3.4832,3.4808,3.4872,3.4886,3.4917,3.4991,3.5024,3.5005,3.5138,3.5098,3.5104,3.5108,3.5147,3.516,3.5172,3.5015,3.5014,3.5013,0,0,3.4699,3.4722,3.4781,3.4805,3.4839,3.4846,3.486,3.4891,3.4899,3.4964,3.4946,3.4986,3.5059,3.5081,3.5102,3.5202,3.5186,3.5215,3.5266,3.5307,3.5318,3.5328,3.5362,3.5374,3.5223,3.5223,3.5223,0,3.4741,3.4813,3.4813,3.4866,3.4891,3.4872,3.4931,3.4953,3.4998,3.5015,3.4993,3.5083,3.5103,3.518,3.5205,3.5223,3.5237,3.5211,3.5317,3.5326,3.5336,3.5368,3.5381,3.5226,3.5226,3.5225,3.5225,0,3.4862,3.4912,3.4955,3.5,3.503,3.5086,3.5093,3.5123,3.5117,3.5126,3.5191,3.5214,3.5257,3.5275,3.527,3.5352,3.5339,3.5317,3.5276,3.5352,3.5382,3.5395,3.5231,3.523,3.5229,3.5228,0,0,3.4983,3.5027,3.5042,3.5062,3.5098,3.5135,3.5189,3.5232,3.5257,3.5289,3.5332,3.5394,3.5373,3.5397,3.5394,3.543,3.5505,3.5403,3.5404,3.542,3.5594,3.5609,3.5624,3.5495,3.5497,3.5499,3.5591,0,3.5077,3.5173,3.5174,3.5261,3.5305,3.5287,3.5333,3.5359,3.5368,3.5406,3.5415,3.5459,3.5429,3.5443,3.5478,3.5489,3.554,3.5482,3.5533,3.5535,3.5525,3.564,3.5657,3.5742,3.5603,3.5605,3.5606,0,3.5201,3.5237,3.5329,3.5357,3.5375,3.5417,3.5456,3.5493,3.5521,3.5525,3.5551,3.5542,3.5594,3.5553,3.5624,3.5585,3.5605,3.5614,3.5617,3.5621,3.5574,3.5645,3.577,3.5782,3.5625,3.5624,3.5622,0,3.5277,3.5349,3.5412,3.543,3.5464,3.5494,3.5509,3.5535,3.5561,3.5594,3.561,3.5649,3.5669,3.5699,3.57,3.567,3.577,3.573,3.5773,3.5773,3.5795,3.5793,3.5923,3.581,3.581,3.581,3.581,0,3.5382,3.5438,3.5447,3.5486,3.5548,3.5547,3.5608,3.562,3.5643,3.5683,3.5669,3.5707,3.5706,3.5744,3.5745,3.5802,3.5812,3.5815,3.5814,3.5816,3.5815,3.5828,3.5822,3.5813,3.5813,3.5812,3.5811,0,3.5478,3.5486,3.5554,3.5581,3.5589,3.5633,3.5656,3.5692,3.5699,3.5749,3.5761,3.5772,3.5815,3.582,3.5869,3.587,3.5939,3.5932,3.593,3.5928,3.5971,3.5966,3.6112,3.6131,3.6008,3.6009,3.601,0,3.5544,3.5587,3.5618,3.5644,3.5662,3.5704,3.573,3.573,3.5757,3.5792,3.5823,3.5865,3.5899,3.5968,3.5979,3.6017,3.601,3.6059,3.6016,3.6015,3.6009,3.6006,3.6009,3.6067,3.6068,3.6069,3.607,0,3.5659,3.566,3.5699,3.5739,3.577,3.5801,3.5829,3.5851,3.5855,3.5886,3.593,3.5956,3.6007,3.6047,3.6084,3.6098,3.6084,3.6084,3.6096,3.6097,3.6093,3.6094,3.5951,3.608,3.6079,3.6079,3.6078,3.6078,3.574,3.5777,3.5805,3.5847,3.5869,3.5896,3.5931,3.5943,3.598,3.6022,3.602,3.6068,3.6093,3.6141,3.6158,3.6194,3.6178,3.6195,3.6199,3.6203,3.6207,3.6088,3.6201,3.6201,3.62,3.62,3.62,0,3.5853,3.587,3.591,3.595,3.5983,3.5969,3.6,3.6028,3.6071,3.6096,3.6129,3.6179,3.6218,3.6233,3.6271,3.6297,3.6291,3.6306,3.6304,3.6307,3.622,3.6206,3.631,3.631,3.631,3.631,3.631,3.631,3.5916,3.5976,3.5981,3.6052,3.6067,3.6116,3.6134,3.6158,3.6178,3.6235,3.6267,3.6277,3.6297,3.6336,3.6371,3.6374,3.6388,3.6406,3.6406,3.6324,3.6313,3.6303,3.6289,3.6409,3.6409,3.6489,3.649,3.649]}]]